Estherville, IA

1:04 AM CDT on May 28, 2018 (GMT -0500)
Estherville Municipal

Weather History for KEST - March, 2014

Change the Weather History Date:

Saturday, March 22, 2014

  Actual Average Record
Temperature  
Mean Temperature 19 °F 36 °F  
Max Temperature 25 °F 45 °F 63 °F (2012)
Min Temperature 12 °F 26 °F 5 °F (1955)
Degree Days  
Heating Degree Days 46 29  
Month to date heating degree days 882 756  
Since 1 July heating degree days 7373 6671  
Cooling Degree Days 0 0  
Month to date cooling degree days 0 0  
Year to date cooling degree days 0 0  
Moisture  
Dew Point 8 °F    
Average Humidity 64    
Maximum Humidity 76    
Minimum Humidity 52    
Precipitation  
Precipitation 0.00 in 0.06 in 0.54 in (1993)
Month to date precipitation 0.08 0.93  
Sea Level Pressure  
Sea Level Pressure 30.44 in    
Wind  
Wind Speed 18 mph (NNW)    
Max Wind Speed 30 mph    
Max Gust Speed 39 mph    
Visibility 10 miles    
Events      
T = Trace of Precipitation, MM = Missing Value Source: NWS Daily Summary

Daily Weather History Graph

Daily Weather History Graph

Search for Another Location

Airport or City:

Astronomy

Mar. 22, 2014 Rise Set
Actual Time 7:18 AM CDT 7:33 PM CDT
Civil Twilight 6:50 AM CDT 8:02 PM CDT
Nautical Twilight 6:16 AM CDT 8:35 PM CDT
Astronomical Twilight 5:42 AM CDT 9:10 PM CDT
Moon 1:02 AM CDT (3/22) 10:54 AM CDT (3/22)
Length of Visible Light 13h 12m
Length of Day
12h 15m
Waning Gibbous, 65% of the Moon is Illuminated
Mar 22
Waning Gibbous
Mar 23
Last Quarter
Mar 30
New
Apr 7
First Quarter
Apr 15
Full

Hourly Weather History & Observations

Time (CDT) Temp. Windchill Dew Point Humidity Pressure Visibility Wind Dir Wind Speed Gust Speed Precip Events Conditions
12:52 AM 19.9 °F 1.5 °F 12.0 °F 71% 30.24 in 10.0 mi NNW 28.8 mph 38.0 mph N/A   Clear
1:52 AM 18.0 °F -0.5 °F 10.9 °F 74% 30.27 in 10.0 mi NNW 26.5 mph 34.5 mph N/A   Clear
2:52 AM 17.1 °F 0.1 °F 9.0 °F 71% 30.29 in 10.0 mi NNW 20.7 mph 29.9 mph N/A   Clear
3:52 AM 16.0 °F -2.5 °F 8.1 °F 71% 30.31 in 10.0 mi NNW 24.2 mph - N/A   Clear
4:52 AM 15.1 °F -3.7 °F 8.1 °F 74% 30.33 in 10.0 mi NNW 24.2 mph 34.5 mph N/A   Clear
5:52 AM 14.0 °F -2.5 °F 7.0 °F 74% 30.37 in 10.0 mi NNW 17.3 mph 28.8 mph N/A   Clear
6:52 AM 12.9 °F -5.3 °F 6.1 °F 74% 30.38 in 10.0 mi NNW 20.7 mph 27.6 mph N/A   Clear
7:52 AM 12.0 °F -7.3 °F 6.1 °F 77% 30.42 in 10.0 mi NNW 23.0 mph 29.9 mph N/A   Clear
8:52 AM 12.9 °F -6.1 °F 3.9 °F 67% 30.44 in 10.0 mi NNW 23.0 mph 28.8 mph N/A   Clear
9:52 AM 16.0 °F -1.3 °F 5.0 °F 62% 30.46 in 10.0 mi NNW 20.7 mph 27.6 mph N/A   Clear
10:52 AM 17.1 °F 0.6 °F 5.0 °F 59% 30.47 in 10.0 mi North 19.6 mph - N/A   Clear
11:52 AM 19.0 °F 2.4 °F 7.0 °F 59% 30.48 in 10.0 mi North 21.9 mph - N/A   Clear
12:52 PM 21.0 °F 6.6 °F 7.0 °F 55% 30.48 in 10.0 mi North 17.3 mph 31.1 mph N/A   Clear
1:52 PM 23.0 °F 8.7 °F 8.1 °F 53% 30.49 in 10.0 mi North 18.4 mph 34.5 mph N/A   Partly Cloudy
2:52 PM 23.0 °F 7.2 °F 10.0 °F 58% 30.48 in 10.0 mi North 23.0 mph 29.9 mph N/A   Scattered Clouds
3:52 PM 23.0 °F 8.7 °F 9.0 °F 55% 30.48 in 10.0 mi North 18.4 mph 24.2 mph N/A   Scattered Clouds
4:52 PM 23.0 °F 9.2 °F 10.0 °F 58% 30.48 in 10.0 mi North 17.3 mph - N/A   Scattered Clouds
5:52 PM 21.9 °F 6.9 °F 10.0 °F 60% 30.49 in 10.0 mi NNW 19.6 mph - N/A   Mostly Cloudy
6:52 PM 21.9 °F 8.7 °F 10.9 °F 63% 30.50 in 10.0 mi North 15.0 mph - N/A   Mostly Cloudy
7:52 PM 19.9 °F 5.2 °F 10.0 °F 65% 30.51 in 10.0 mi North 17.3 mph - N/A   Scattered Clouds
8:52 PM 19.9 °F 7.3 °F 10.0 °F 65% 30.53 in 10.0 mi NNW 12.7 mph - N/A   Mostly Cloudy
9:52 PM 19.0 °F 6.1 °F 10.0 °F 68% 30.54 in 10.0 mi North 12.7 mph - N/A   Clear
10:52 PM 17.1 °F 4.3 °F 10.0 °F 74% 30.55 in 10.0 mi North 11.5 mph - N/A   Clear
11:52 PM 15.1 °F 3.3 °F 9.0 °F 77% 30.57 in 10.0 mi North 9.2 mph - N/A   Clear